| time (UTC) | temp F | wind direction | speed knots | gust knots | rain 1hr in | rain 24hr in | rain mn in | humidity % | barometer mb |
| 20260902110046 | 80 | 259 | 0.0 | 3.5 | 0.00 | 0.02 | 0.00 | 92 | 1011.8 |
| 20260902104612 | 80 | 229 | 0.0 | 3.5 | 0.00 | 0.02 | 0.00 | 92 | 1011.9 |
| 20260902103044 | 80 | 260 | 0.0 | 2.6 | 0.00 | 0.02 | 0.00 | 91 | 1012.0 |
| 20260902101544 | 80 | 173 | 0.9 | 7.8 | 0.00 | 0.02 | 0.00 | 92 | 1011.8 |
| 20260902100105 | 80 | 171 | 0.9 | 4.3 | 0.00 | 0.02 | 0.00 | 91 | 1011.6 |
| 20260902094543 | 80 | 240 | 0.0 | 2.6 | 0.00 | 0.02 | 0.00 | 91 | 1011.6 |
| 20260902093042 | 80 | 175 | 0.9 | 4.3 | 0.00 | 0.02 | 0.00 | 91 | 1011.7 |
| 20260902091542 | 80 | 223 | 0.0 | 2.6 | 0.00 | 0.02 | 0.00 | 91 | 1011.5 |
| 20260902090043 | 80 | 187 | 0.0 | 2.6 | 0.00 | 0.02 | 0.00 | 91 | 1011.4 |
| 20260902084539 | 80 | 225 | 0.0 | 2.6 | 0.00 | 0.02 | 0.00 | 90 | 1011.5 |
| 20260902083041 | 80 | 226 | 0.0 | 3.5 | 0.00 | 0.02 | 0.00 | 90 | 1011.5 |
| 20260902081558 | 81 | 243 | 1.7 | 5.2 | 0.00 | 0.02 | 0.00 | 90 | 1011.5 |
| 20260902080046 | 81 | 219 | 0.0 | 6.1 | 0.00 | 0.02 | 0.00 | 90 | 1011.7 |
| 20260902074539 | 80 | 213 | 0.0 | 4.3 | 0.00 | 0.02 | 0.00 | 90 | 1011.7 |
| 20260902073036 | 81 | 182 | 0.9 | 3.5 | 0.00 | 0.02 | 0.00 | 90 | 1011.7 |
| 20260902071538 | 81 | 236 | 0.9 | 3.5 | 0.00 | 0.02 | 0.00 | 90 | 1011.8 |
| 20260902070037 | 81 | 213 | 0.0 | 4.3 | 0.00 | 0.02 | 0.00 | 90 | 1011.7 |
| 20260902064535 | 81 | 252 | 0.9 | 3.5 | 0.00 | 0.02 | 0.00 | 89 | 1011.7 |
| 20260902063040 | 81 | 192 | 1.7 | 7.8 | 0.00 | 0.02 | 0.00 | 89 | 1011.7 |
| 20260902061534 | 81 | 206 | 0.9 | 4.3 | 0.00 | 0.02 | 0.00 | 89 | 1011.7 |
| 20260902060036 | 81 | 202 | 0.9 | 4.3 | 0.00 | 0.02 | 0.00 | 89 | 1011.7 |
| 20260902054535 | 81 | 245 | 0.9 | 4.3 | 0.00 | 0.02 | 0.00 | 88 | 1011.5 |
| 20260902053031 | 81 | 231 | 0.0 | 4.3 | 0.00 | 0.02 | 0.00 | 88 | 1011.7 |
| 20260902051528 | 81 | 267 | 0.0 | 3.5 | 0.00 | 0.02 | 0.00 | 87 | 1011.8 |
| 20260902050026 | 81 | 243 | 0.0 | 5.2 | 0.00 | 0.02 | 0.00 | 87 | 1011.8 |
| 20260902044538 | 81 | 192 | 0.9 | 4.3 | 0.00 | 0.02 | 0.02 | 87 | 1011.8 |
| 20260902043025 | 81 | 209 | 0.0 | 2.6 | 0.00 | 0.02 | 0.02 | 86 | 1011.8 |
| 20260902041526 | 81 | 241 | 0.0 | 2.6 | 0.00 | 0.02 | 0.02 | 87 | 1011.8 |
| 20260902040025 | 80 | 228 | 0.0 | 1.7 | 0.00 | 0.02 | 0.02 | 87 | 1011.9 |
| 20260902034524 | 80 | 250 | 0.0 | 2.6 | 0.00 | 0.02 | 0.02 | 87 | 1011.9 |
| 20260902033023 | 80 | 252 | 0.0 | 2.6 | 0.00 | 0.02 | 0.02 | 87 | 1011.9 |
| 20260902031535 | 80 | 258 | 0.0 | 0.9 | 0.00 | 0.02 | 0.02 | 86 | 1011.7 |
| 20260902030022 | 80 | 258 | 0.0 | 0.9 | 0.00 | 0.02 | 0.02 | 86 | 1011.4 |
| 20260902024522 | 80 | 216 | 0.0 | 1.7 | 0.00 | 0.02 | 0.02 | 86 | 1011.2 |
| 20260902023022 | 80 | 265 | 0.0 | 1.7 | 0.00 | 0.02 | 0.02 | 86 | 1011.1 |
| 20260902021530 | 80 | 239 | 0.0 | 2.6 | 0.00 | 0.02 | 0.02 | 86 | 1010.8 |
| 20260902020020 | 81 | 258 | 0.0 | 2.6 | 0.00 | 0.02 | 0.02 | 85 | 1010.8 |
| 20260902014541 | 81 | 267 | 0.0 | 4.3 | 0.00 | 0.02 | 0.02 | 85 | 1010.6 |
| 20260902013018 | 81 | 244 | 0.9 | 2.6 | 0.00 | 0.02 | 0.02 | 85 | 1010.4 |
| 20260902011518 | 81 | 236 | 0.0 | 2.6 | 0.00 | 0.02 | 0.02 | 84 | 1010.2 |
| 20260902010020 | 82 | 246 | 0.0 | 3.5 | 0.00 | 0.02 | 0.02 | 83 | 1010.1 |
| 20260902004521 | 82 | 247 | 2.6 | 5.2 | 0.00 | 0.02 | 0.02 | 82 | 1010.3 |
| 20260902003015 | 82 | 278 | 1.7 | 5.2 | 0.00 | 0.02 | 0.02 | 82 | 1010.5 |
| 20260902001514 | 83 | 332 | 0.9 | 6.1 | 0.00 | 0.02 | 0.02 | 81 | 1010.6 |
| 20260902000018 | 83 | 325 | 2.6 | 7.0 | 0.00 | 0.02 | 0.02 | 81 | 1010.6 |
| 20260901234533 | 83 | 323 | 0.9 | 5.2 | 0.00 | 0.02 | 0.02 | 82 | 1010.5 |
| 20260901233013 | 83 | 322 | 1.7 | 7.8 | 0.00 | 0.02 | 0.02 | 82 | 1010.5 |
| 20260901231512 | 83 | 345 | 2.6 | 6.1 | 0.00 | 0.02 | 0.02 | 82 | 1010.6 |
| 20260901230014 | 83 | 315 | 1.7 | 6.1 | 0.00 | 0.02 | 0.02 | 84 | 1010.7 |
| 20260901224511 | 84 | 335 | 1.7 | 7.8 | 0.00 | 0.02 | 0.02 | 83 | 1011.0 |
| 20260901223012 | 84 | 319 | 2.6 | 8.7 | 0.00 | 0.02 | 0.02 | 82 | 1010.8 |
| 20260901221534 | 84 | 318 | 2.6 | 7.0 | 0.00 | 0.02 | 0.02 | 83 | 1010.8 |
| 20260901220013 | 84 | 278 | 2.6 | 7.8 | 0.00 | 0.02 | 0.02 | 83 | 1010.6 |
| 20260901214507 | 84 | 278 | 2.6 | 6.1 | 0.00 | 0.02 | 0.02 | 82 | 1010.9 |
| 20260901213005 | 84 | 300 | 2.6 | 7.0 | 0.00 | 0.02 | 0.02 | 81 | 1011.2 |
| 20260901211506 | 85 | 305 | 1.7 | 6.1 | 0.00 | 0.02 | 0.02 | 80 | 1011.4 |
| 20260901210009 | 84 | 252 | 1.7 | 6.1 | 0.00 | 0.06 | 0.02 | 81 | 1011.4 |
| 20260901204508 | 84 | 252 | 3.5 | 7.8 | 0.00 | 0.06 | 0.02 | 81 | 1011.2 |
| 20260901203004 | 84 | 308 | 3.5 | 7.8 | 0.00 | 0.06 | 0.02 | 82 | 1011.1 |
| 20260901201506 | 83 | 277 | 4.3 | 8.7 | 0.00 | 0.06 | 0.02 | 82 | 1011.2 |
| 20260901200100 | 83 | 263 | 2.6 | 7.0 | 0.01 | 0.06 | 0.02 | 82 | 1011.5 |
| 20260901194556 | 82 | 331 | 3.5 | 7.0 | 0.01 | 0.06 | 0.02 | 82 | 1012.0 |
| 20260901193106 | 82 | 261 | 3.5 | 7.0 | 0.01 | 0.06 | 0.02 | 83 | 1012.1 |
| 20260901191554 | 82 | 279 | 2.6 | 7.0 | 0.01 | 0.06 | 0.02 | 84 | 1012.2 |
| 20260901190054 | 83 | 311 | 1.7 | 3.5 | 0.00 | 0.05 | 0.01 | 83 | 1012.5 |
| 20260901184557 | 83 | 345 | 1.7 | 3.5 | 0.00 | 0.05 | 0.01 | 84 | 1012.7 |
| 20260901183056 | 83 | 307 | 1.7 | 5.2 | 0.00 | 0.05 | 0.01 | 83 | 1012.7 |
| 20260901181553 | 83 | 348 | 2.6 | 6.1 | 0.01 | 0.05 | 0.01 | 82 | 1012.8 |
| 20260901180052 | 83 | 340 | 3.5 | 7.8 | 0.01 | 0.05 | 0.01 | 83 | 1012.8 |
| 20260901174553 | 83 | 346 | 2.6 | 7.0 | 0.01 | 0.05 | 0.01 | 83 | 1013.0 |
| 20260901173050 | 83 | 293 | 1.7 | 4.3 | 0.01 | 0.05 | 0.01 | 83 | 1013.3 |
| 20260901171557 | 83 | 344 | 1.7 | 5.2 | 0.00 | 0.04 | 0.00 | 82 | 1013.6 |
| 20260901170050 | 84 | 352 | 0.9 | 6.1 | 0.00 | 0.04 | 0.00 | 81 | 1014.0 |
| 20260901164549 | 85 | 344 | 2.6 | 7.8 | 0.00 | 0.04 | 0.00 | 78 | 1014.0 |
| 20260901163050 | 85 | 352 | 1.7 | 7.0 | 0.00 | 0.04 | 0.00 | 78 | 1014.1 |
| 20260901161548 | 86 | 36 | 0.9 | 7.0 | 0.00 | 0.04 | 0.00 | 78 | 1014.1 |
| 20260901160056 | 86 | 360 | 2.6 | 8.7 | 0.00 | 0.04 | 0.00 | 78 | 1014.0 |
| 20260901154544 | 85 | 9 | 1.7 | 7.0 | 0.00 | 0.04 | 0.00 | 79 | 1013.8 |
| 20260901153042 | 85 | 25 | 2.6 | 7.8 | 0.00 | 0.04 | 0.00 | 79 | 1013.6 |
| 20260901151539 | 84 | 25 | 3.5 | 7.0 | 0.00 | 0.04 | 0.00 | 80 | 1013.6 |
| 20260901150036 | 84 | 352 | 2.6 | 7.8 | 0.00 | 0.04 | 0.00 | 81 | 1013.5 |
| 20260901144531 | 84 | 34 | 1.7 | 6.1 | 0.00 | 0.04 | 0.00 | 82 | 1013.5 |
| 20260901143031 | 83 | 331 | 2.6 | 6.1 | 0.00 | 0.04 | 0.00 | 82 | 1013.5 |
| 20260901141527 | 83 | 352 | 2.6 | 7.0 | 0.00 | 0.04 | 0.00 | 83 | 1013.6 |
| 20260901140023 | 82 | 329 | 2.6 | 6.1 | 0.00 | 0.04 | 0.00 | 85 | 1013.5 |
| 20260901134534 | 82 | 325 | 2.6 | 6.1 | 0.00 | 0.04 | 0.00 | 85 | 1013.3 |
| 20260901133019 | 82 | 325 | 1.7 | 5.2 | 0.00 | 0.04 | 0.00 | 86 | 1013.5 |
| 20260901131517 | 81 | 344 | 0.9 | 6.1 | 0.00 | 0.04 | 0.00 | 87 | 1013.4 |
| 20260901130015 | 81 | 338 | 0.9 | 5.2 | 0.00 | 0.04 | 0.00 | 87 | 1013.2 |
| 20260901124511 | 81 | 346 | 1.7 | 5.2 | 0.00 | 0.04 | 0.00 | 88 | 1013.1 |
| 20260901123012 | 81 | 46 | 0.9 | 2.6 | 0.00 | 0.04 | 0.00 | 88 | 1013.0 |
| 20260901121512 | 81 | 344 | 0.0 | 2.6 | 0.00 | 0.04 | 0.00 | 88 | 1012.7 |
| 20260901120007 | 81 | 336 | 0.9 | 3.5 | 0.00 | 0.04 | 0.00 | 88 | 1012.5 |
| 20260901114508 | 81 | 27 | 0.9 | 2.6 | 0.00 | 0.04 | 0.00 | 88 | 1012.5 |
| 20260901113013 | 82 | 27 | 0.9 | 2.6 | 0.00 | 0.04 | 0.00 | 88 | 1012.7 |
| 20260901111504 | 81 | 323 | 0.0 | 0.0 | 0.00 | 0.04 | 0.00 | 89 | 1012.5 |